EW3786 Weather Reports


time (UTC)temp
C
wind
direction
speed
KPH
gust
KPH
rain 1hr
cm
rain 24hr
cm
rain mn
cm
humidity
%
barometer
mb
20260506195823 1 332 1.6 4.8 0.00 0.89 0.18 82 1008.8
20260506195355 1 332 0.0 4.8 0.00 0.89 0.18 82 1008.8
20260506194827 1 332 1.6 4.8 0.00 0.89 0.18 81 1008.8
20260506194318 1 332 0.0 3.2 0.00 0.89 0.18 81 1008.8
20260506193830 1 332 1.6 3.2 0.00 0.89 0.18 81 1008.8
20260506193324 1 332 0.0 4.8 0.00 0.89 0.18 80 1008.7
20260506192856 1 332 0.0 4.8 0.00 0.89 0.18 80 1008.7
20260506192327 1 332 0.0 3.2 0.00 0.89 0.18 80 1008.7
20260506191818 1 332 0.0 4.8 0.00 0.89 0.18 80 1008.6
20260506191329 1 332 1.6 6.4 0.00 0.89 0.18 80 1008.7
20260506190819 1 330 1.6 6.4 0.00 0.89 0.18 79 1008.5
20260506190332 1 330 1.6 4.8 0.00 0.89 0.18 79 1008.5
20260506185822 2 330 1.6 4.8 0.00 0.89 0.18 79 1008.4
20260506185336 2 330 3.2 6.4 0.00 0.89 0.18 78 1008.4
20260506184832 2 328 1.6 9.7 0.00 0.89 0.18 78 1008.4
20260506184324 2 329 3.2 8.0 0.00 0.89 0.18 77 1008.3
20260506183856 2 330 3.2 12.9 0.00 0.89 0.18 76 1008.2
20260506183329 2 354 3.2 12.9 0.00 0.89 0.18 76 1008.2
20260506182819 2 349 3.2 14.5 0.00 0.89 0.18 76 1008.2
20260506182330 2 332 6.4 14.5 0.00 0.89 0.18 76 1008.1
20260506181823 2 337 4.8 9.7 0.00 0.89 0.18 77 1008.2
20260506181334 3 343 1.6 6.4 0.00 0.89 0.18 76 1008.2
20260506180827 3 345 3.2 6.4 0.00 0.89 0.18 77 1008.1
20260506180322 3 360 0.0 4.8 0.00 0.89 0.18 76 1008.1
20260506175833 3 360 0.0 8.0 0.00 0.89 0.18 76 1008.1
20260506175323 3 357 1.6 8.0 0.00 0.89 0.18 77 1008.0
20260506174816 3 339 3.2 8.0 0.00 0.89 0.18 76 1008.0
20260506174327 3 329 3.2 6.4 0.00 0.89 0.18 76 1008.0
20260506173840 3 323 1.6 9.7 0.00 0.89 0.18 76 1008.0
20260506173353 3 341 6.4 9.7 0.10 0.89 0.18 75 1008.0
20260506172825 3 358 3.2 12.9 0.10 0.89 0.18 75 1008.0
20260506172357 3 354 6.4 11.3 0.10 0.89 0.18 75 1007.9
20260506171827 3 353 6.4 11.3 0.10 0.89 0.18 76 1007.9
20260506171324 3 339 3.2 14.5 0.10 0.89 0.18 76 1007.8
20260506170835 3 308 3.2 14.5 0.10 0.89 0.18 76 1007.9
20260506170328 3 332 4.8 14.5 0.10 0.89 0.18 76 1007.8
20260506165816 3 330 4.8 14.5 0.10 0.89 0.18 75 1007.8
20260506165330 3 308 4.8 19.3 0.10 0.89 0.18 75 1007.8
20260506164844 4 23 9.7 19.3 0.10 0.89 0.18 74 1007.8
20260506164336 4 316 11.3 19.3 0.10 0.89 0.18 75 1007.7
20260506163847 4 319 9.7 20.9 0.10 0.89 0.18 75 1007.7
20260506163319 4 291 11.3 24.1 0.00 0.79 0.15 76 1007.7
20260506162853 4 326 9.7 20.9 0.00 0.79 0.15 78 1007.7
20260506162328 3 296 6.4 16.1 0.00 0.79 0.15 78 1007.6
20260506161818 3 281 6.4 16.1 0.00 0.79 0.15 77 1007.6
20260506161330 3 281 6.4 11.3 0.00 0.79 0.15 79 1007.6
20260506160823 3 297 6.4 12.9 0.00 0.79 0.15 81 1007.6
20260506160317 2 281 6.4 12.9 0.00 0.79 0.15 81 1007.6
20260506155828 2 261 6.4 17.7 0.00 0.79 0.15 78 1007.6
20260506155320 3 302 6.4 17.7 0.00 0.79 0.15 75 1007.5
20260506154815 3 281 6.4 12.9 0.00 0.79 0.15 74 1007.4
20260506154328 3 308 4.8 11.3 0.00 0.79 0.15 74 1007.4
20260506153840 3 341 4.8 11.3 0.00 0.79 0.15 73 1007.4
20260506153331 3 291 4.8 11.3 0.00 0.79 0.15 73 1007.4
20260506152823 3 231 3.2 11.3 0.00 0.79 0.15 71 1007.4
20260506152334 4 281 3.2 14.5 0.00 0.79 0.15 70 1007.4
20260506151827 4 275 4.8 14.5 0.00 0.79 0.15 67 1007.4
20260506151318 5 297 3.2 14.5 0.00 0.79 0.15 67 1007.4
20260506150831 5 296 6.4 14.5 0.00 0.79 0.15 64 1007.4
20260506150328 5 305 3.2 9.7 0.00 0.79 0.15 62 1007.3
20260506145816 6 314 3.2 14.5 0.00 0.79 0.15 60 1007.4
20260506145329 6 320 6.4 16.1 0.00 0.79 0.15 59 1007.3
20260506144820 6 332 8.0 16.1 0.00 0.79 0.15 60 1007.2
20260506144332 6 332 6.4 16.1 0.00 0.79 0.15 60 1007.2
20260506143821 7 349 3.2 12.9 0.00 0.79 0.15 60 1007.2
20260506143355 7 6 4.8 14.5 0.00 0.79 0.15 59 1007.3
20260506142825 7 268 8.0 17.7 0.00 0.79 0.15 58 1007.1
20260506142317 7 331 9.7 17.7 0.00 0.79 0.15 60 1007.1
20260506141835 6 334 4.8 17.7 0.00 0.79 0.15 62 1007.1
20260506141326 6 23 4.8 22.5 0.00 0.79 0.15 61 1007.1
20260506140835 6 342 4.8 22.5 0.00 0.79 0.15 59 1007.1
20260506140327 6 31 9.7 19.3 0.00 0.79 0.15 61 1007.1
20260506135817 6 341 8.0 19.3 0.00 0.79 0.15 60 1007.0
20260506135330 6 306 4.8 16.1 0.00 0.79 0.15 60 1007.0
20260506134818 6 286 4.8 17.7 0.00 0.79 0.15 60 1007.0
20260506134329 6 320 6.4 17.7 0.00 0.79 0.15 60 1006.9
20260506133842 6 312 4.8 14.5 0.00 0.79 0.15 60 1006.9
20260506133318 6 311 6.4 16.1 0.00 0.79 0.15 58 1007.0
20260506132850 7 309 8.0 17.7 0.00 0.79 0.15 56 1007.0
20260506132323 7 331 9.7 17.7 0.00 0.79 0.15 54 1006.9
20260506131835 8 341 8.0 19.3 0.00 0.79 0.15 52 1006.8
20260506131326 8 315 6.4 20.9 0.00 0.79 0.15 54 1006.8
20260506130816 8 326 9.7 20.9 0.00 0.79 0.15 55 1006.8
20260506130329 8 323 12.9 19.3 0.00 0.79 0.15 57 1006.8
20260506125818 7 336 9.7 19.3 0.00 0.79 0.15 58 1006.8
20260506125330 7 308 9.7 17.7 0.00 0.79 0.15 61 1006.8
20260506124821 7 338 6.4 19.3 0.00 0.79 0.15 60 1006.8
20260506124332 7 315 8.0 22.5 0.00 0.79 0.15 55 1006.8
20260506123824 8 327 11.3 22.5 0.00 0.79 0.15 56 1006.7
20260506123316 7 354 8.0 17.7 0.00 0.79 0.15 54 1006.7
20260506122828 8 296 8.0 16.1 0.00 0.79 0.15 57 1006.6
20260506122318 8 296 9.7 16.1 0.00 0.79 0.15 55 1006.6
20260506121831 7 268 8.0 17.7 0.00 0.79 0.15 57 1006.6
20260506121343 7 325 6.4 19.3 0.00 0.79 0.15 57 1006.6
20260506120818 7 286 9.7 19.3 0.00 0.79 0.15 58 1006.6
20260506120331 6 336 6.4 16.1 0.00 0.79 0.15 62 1006.5
20260506115823 6 310 6.4 16.1 0.00 0.79 0.15 60 1006.5
20260506115334 5 322 8.0 16.1 0.00 0.79 0.15 64 1006.5
20260506114828 5 339 4.8 17.7 0.00 0.79 0.15 63 1006.5
20260506114317 5 317 8.0 19.3 0.00 0.79 0.15 65 1006.5
20260506113831 5 308 11.3 19.3 0.00 0.79 0.15 65 1006.4
20260506113343 6 313 8.0 19.3 0.00 0.79 0.15 65 1006.4
20260506112833 6 317 4.8 16.1 0.00 0.79 0.15 63 1006.3
20260506112330 6 4 9.7 16.1 0.00 0.79 0.15 61 1006.2
20260506111822 6 33 6.4 14.5 0.00 0.79 0.15 63 1006.2
20260506111335 6 330 8.0 16.1 0.00 0.79 0.15 64 1006.2
20260506110826 7 286 4.8 16.1 0.00 0.79 0.15 61 1006.1
20260506110320 7 286 6.4 14.5 0.00 0.79 0.15 60 1006.1
20260506105852 7 335 8.0 17.7 0.00 0.79 0.15 64 1006.0
20260506105344 7 318 8.0 16.1 0.00 0.79 0.15 62 1006.0
20260506104836 7 337 3.2 16.1 0.00 0.79 0.15 64 1006.0
20260506104326 7 301 4.8 16.1 0.00 0.79 0.15 68 1005.9
20260506103821 7 286 4.8 14.5 0.00 0.79 0.15 68 1005.8
20260506103334 6 281 4.8 16.1 0.00 0.79 0.15 72 1005.7
20260506102817 6 338 4.8 14.5 0.00 0.79 0.15 70 1005.8
20260506102329 6 328 8.0 16.1 0.00 0.79 0.15 71 1005.8
20260506101818 6 351 6.4 16.1 0.00 0.79 0.15 76 1005.7
20260506100821 6 353 11.3 17.7 0.00 0.79 0.15 71 1005.7
20260506100333 6 313 9.7 17.7 0.00 0.79 0.15 73 1005.6
20260506095837 6 328 8.0 16.1 0.00 0.79 0.15 74 1005.6
20260506095328 5 327 6.4 16.1 0.00 0.79 0.15 78 1005.6
20260506094825 5 345 6.4 17.7 0.10 0.79 0.15 81 1005.5
20260506094337 5 62 6.4 17.7 0.10 0.79 0.15 74 1005.5
20260506093826 5 322 9.7 17.7 0.10 0.79 0.15 80 1005.5
20260506093320 4 354 3.2 19.3 0.20 0.79 0.15 81 1005.4
20260506092831 3 339 3.2 19.3 0.20 0.79 0.15 84 1005.4
20260506092322 3 303 6.4 16.1 0.20 0.79 0.15 79 1005.5
20260506091836 3 329 9.7 17.7 0.20 0.79 0.15 78 1005.4
20260506091326 3 317 8.0 17.7 0.30 0.79 0.15 81 1005.4
20260506090823 3 24 3.2 16.1 0.30 0.79 0.15 79 1005.3
20260506090316 3 347 6.4 16.1 0.30 0.79 0.15 83 1005.1
20260506085829 2 347 8.0 16.1 0.30 0.79 0.15 81 1005.2
20260506085318 2 335 1.6 14.5 0.30 0.79 0.15 81 1005.1
20260506084831 2 360 8.0 14.5 0.20 0.71 0.15 84 1005.1
20260506084320 2 347 4.8 14.5 0.30 0.71 0.15 87 1005.1
20260506083833 2 16 1.6 14.5 0.30 0.71 0.15 86 1005.0
20260506083326 2 8 4.8 14.5 0.20 0.61 0.13 85 1005.0
20260506082821 2 335 6.4 14.5 0.20 0.61 0.13 86 1005.0
20260506082355 2 355 4.8 12.9 0.20 0.61 0.13 86 1004.9
20260506081821 2 23 4.8 12.9 0.30 0.61 0.13 87 1004.9
20260506081352 1 53 6.4 12.9 0.20 0.51 0.10 88 1004.9
20260506080818 1 1 3.2 11.3 0.20 0.51 0.10 88 1004.8
20260506080331 1 333 1.6 8.0 0.20 0.51 0.10 87 1004.7
20260506073331 1 342 4.8 12.9 0.30 0.41 0.08 88 1004.4
20260506072821 1 343 4.8 9.7 0.30 0.41 0.08 89 1004.3
20260506072335 1 341 1.6 14.5 0.30 0.41 0.08 89 1004.3
20260506071827 1 348 8.0 19.3 0.20 0.30 0.05 88 1004.1
20260506071319 1 351 8.0 19.3 0.20 0.30 0.05 88 1004.1
20260506070831 1 323 6.4 16.1 0.20 0.30 0.05 88 1004.1
20260506070325 1 322 8.0 14.5 0.20 0.30 0.05 89 1004.0
20260506062322 0 3 3.2 9.7 0.10 0.10 0.03 91 1003.7
20260506061833 0 16 3.2 6.4 0.10 0.10 0.03 92 1003.6
20260506061346 0 360 0.0 4.8 0.10 0.10 0.03 92 1003.5
20260506060857 0 2 1.6 4.8 0.10 0.10 0.03 92 1003.5
20260506060328 0 360 0.0 6.4 0.10 0.10 0.03 92 1003.4
20260506051331 0 359 4.8 6.4 0.00 0.00 0.00 93 1003.1
20260506050823 0 17 1.6 4.8 0.00 0.00 0.00 94 1003.1
20260506050317 0 41 1.6 6.4 0.00 0.00 0.00 94 1003.0
20260506044831 0 24 0.0 4.8 0.00 0.00 0.00 95 1002.8
20260506044323 0 27 0.0 3.2 0.00 0.00 0.00 95 1002.7
20260506043833 -1 27 0.0 0.0 0.00 0.00 0.00 95 1002.7
20260506043330 -1 27 0.0 0.0 0.00 0.00 0.00 96 1002.7
20260506042818 -1 27 0.0 0.0 0.00 0.00 0.00 96 1002.7
20260506042331 -1 27 0.0 0.0 0.00 0.00 0.00 96 1002.6
20260506041820 -1 27 0.0 0.0 0.00 0.00 0.00 96 1002.6
20260506041333 -1 27 0.0 0.0 0.00 0.00 0.00 96 1002.5
20260506040842 -1 27 0.0 0.0 0.00 0.00 0.00 96 1002.4
20260506040332 -1 27 0.0 0.0 0.00 0.00 0.00 96 1002.4
20260506035844 -1 27 0.0 0.0 0.00 0.00 0.00 96 1002.4
20260506035316 -1 27 0.0 0.0 0.00 0.00 0.00 96 1002.3
20260506034828 -1 27 0.0 1.6 0.00 0.00 0.00 96 1002.3
20260506034324 -1 27 0.0 1.6 0.00 0.00 0.00 96 1002.2
20260506033857 -1 27 0.0 0.0 0.00 0.00 0.00 96 1002.2
20260506033328 -1 27 0.0 0.0 0.00 0.00 0.00 96 1002.2
20260506032837 -1 27 0.0 0.0 0.00 0.00 0.00 96 1002.2
20260506032330 -1 27 0.0 1.6 0.00 0.00 0.00 96 1002.2
20260506031820 -1 27 0.0 3.2 0.00 0.00 0.00 95 1002.1
20260506031332 -1 27 1.6 3.2 0.00 0.00 0.00 95 1002.1
20260506030825 -1 25 0.0 0.0 0.00 0.00 0.00 95 1002.1
20260506030334 -1 26 0.0 0.0 0.00 0.00 0.00 95 1002.1
20260506025829 -1 26 0.0 0.0 0.00 0.00 0.00 95 1002.1
20260506025320 -1 26 0.0 0.0 0.00 0.00 0.00 95 1002.0
20260506024832 -1 26 0.0 0.0 0.00 0.00 0.00 95 1001.9
20260506024324 -1 26 0.0 0.0 0.00 0.00 0.00 95 1001.9
20260506023837 -1 26 0.0 0.0 0.00 0.00 0.00 95 1001.9
20260506023328 -1 26 0.0 0.0 0.00 0.00 0.00 95 1001.8
20260506022839 -1 26 0.0 0.0 0.00 0.00 0.00 94 1001.8
20260506022329 -1 26 0.0 0.0 0.00 0.00 0.00 94 1001.8
20260506021818 -1 26 0.0 0.0 0.00 0.00 0.00 94 1001.8
20260506021330 -1 26 0.0 0.0 0.00 0.00 0.00 94 1001.7
20260506020827 -1 26 0.0 0.0 0.00 0.00 0.00 94 1001.6
20260506020320 -1 26 0.0 0.0 0.00 0.00 0.00 94 1001.6
20260506015830 -1 26 0.0 0.0 0.00 0.00 0.00 94 1001.6
20260506015342 -1 26 0.0 0.0 0.00 0.00 0.00 94 1001.5
20260506014833 -1 26 0.0 0.0 0.00 0.00 0.00 94 1001.5
20260506014325 -1 26 0.0 0.0 0.00 0.00 0.00 94 1001.4
20260506013816 -1 26 0.0 0.0 0.00 0.00 0.00 94 1001.3
20260506013330 -1 26 0.0 0.0 0.00 0.00 0.00 93 1001.3
20260506012825 -1 26 0.0 0.0 0.00 0.00 0.00 93 1001.3
20260506012338 -1 26 0.0 0.0 0.00 0.00 0.00 93 1001.2
20260506011850 -1 26 0.0 0.0 0.00 0.00 0.00 93 1001.2
20260506011320 -1 26 0.0 0.0 0.00 0.00 0.00 93 1001.2
20260506010852 -1 26 0.0 0.0 0.00 0.00 0.00 93 1001.2
20260506010323 -1 26 0.0 0.0 0.00 0.00 0.00 93 1001.1
20260506005814 -1 26 0.0 0.0 0.00 0.00 0.00 92 1001.1
20260506005349 -1 26 0.0 0.0 0.00 0.00 0.00 92 1001.1
20260506004818 -1 26 0.0 3.2 0.00 0.00 0.00 92 1001.0
20260506004331 -1 26 0.0 3.2 0.00 0.00 0.00 92 1001.1
20260506003835 -1 26 0.0 4.8 0.00 0.00 0.00 92 1001.0
20260506003331 -1 26 0.0 4.8 0.00 0.00 0.00 92 1001.0
20260506002823 -1 22 0.0 3.2 0.00 0.00 0.00 92 1001.0
20260506002333 -1 22 0.0 3.2 0.00 0.00 0.00 92 1001.0
20260506001848 -1 22 0.0 0.0 0.00 0.00 0.00 92 1001.0
20260506001317 -1 22 0.0 0.0 0.00 0.00 0.00 92 1001.0
20260506000850 -1 22 0.0 0.0 0.00 0.00 0.00 91 1001.0
20260506000323 -1 22 0.0 0.0 0.00 0.00 0.00 91 1001.0
20260505235833 -1 22 0.0 0.0 0.00 0.00 0.00 91 1001.0
20260505235325 -1 22 0.0 9.7 0.00 0.00 0.00 90 1001.0
20260505234819 -1 22 1.6 9.7 0.00 0.00 0.00 89 1001.0
20260505234353 -1 2 0.0 3.2 0.00 0.00 0.00 88 1001.0
20260505233822 -1 358 0.0 0.0 0.00 0.00 0.00 88 1001.0
20260505233315 -1 358 0.0 0.0 0.00 0.00 0.00 88 1000.9
20260505232829 -1 358 0.0 0.0 0.00 0.00 0.00 88 1001.0
20260505232321 -1 358 0.0 3.2 0.00 0.00 0.00 88 1000.9
20260505231831 -1 358 0.0 3.2 0.00 0.00 0.00 87 1001.0
20260505231324 -1 358 1.6 4.8 0.00 0.00 0.00 87 1001.0
20260505230815 -1 352 1.6 4.8 0.00 0.00 0.00 87 1001.0
20260505230349 -1 349 0.0 4.8 0.00 0.00 0.00 87 1001.0
20260505225821 -1 350 0.0 4.8 0.00 0.00 0.00 86 1001.0
20260505225333 -1 350 0.0 3.2 0.00 0.00 0.00 87 1001.0
20260505224844 -1 350 0.0 0.0 0.00 0.00 0.00 87 1001.1
20260505224334 -1 350 0.0 0.0 0.00 0.00 0.00 86 1001.1
20260505223846 -1 348 0.0 0.0 0.00 0.00 0.00 86 1001.1
20260505223337 -1 349 0.0 0.0 0.00 0.00 0.00 87 1001.1
20260505222829 -1 349 0.0 0.0 0.00 0.00 0.00 86 1001.0
20260505222322 -1 348 0.0 1.6 0.00 0.00 0.00 86 1001.0
20260505221835 -1 349 0.0 1.6 0.00 0.00 0.00 86 1001.0
20260505221325 -1 348 0.0 0.0 0.00 0.00 0.00 87 1001.0
20260505220839 -1 348 0.0 0.0 0.00 0.00 0.00 87 1001.0
20260505220351 -1 348 0.0 0.0 0.00 0.00 0.00 86 1001.0
20260505215841 -1 349 0.0 3.2 0.00 0.00 0.00 86 1001.0
20260505215330 -1 348 0.0 4.8 0.00 0.00 0.00 86 1001.0
20260505214823 -1 348 1.6 4.8 0.00 0.00 0.00 86 1001.2
20260505214316 -1 348 0.0 4.8 0.00 0.00 0.00 85 1001.1
20260505213847 -1 348 1.6 4.8 0.00 0.00 0.00 85 1001.1
20260505213338 -1 349 0.0 0.0 0.00 0.00 0.00 85 1001.1
20260505212829 -1 349 0.0 1.6 0.00 0.00 0.00 85 1001.1
20260505212322 -1 349 0.0 1.6 0.00 0.00 0.00 85 1001.1
20260505211833 -1 349 0.0 3.2 0.00 0.00 0.00 85 1001.2
20260505211345 -1 349 1.6 3.2 0.00 0.00 0.00 85 1001.1
20260505210818 -1 349 0.0 1.6 0.00 0.00 0.00 85 1001.2
20260505210331 -1 349 0.0 1.6 0.00 0.00 0.00 85 1001.2
20260505205822 -1 349 0.0 1.6 0.00 0.00 0.00 85 1001.2
20260505205315 -1 349 0.0 3.2 0.00 0.00 0.00 85 1001.2
20260505204827 -1 349 1.6 3.2 0.00 0.00 0.00 85 1001.1
20260505204338 -1 348 1.6 3.2 0.00 0.00 0.00 84 1001.1
20260505203828 -1 346 0.0 1.6 0.00 0.00 0.00 84 1001.1
20260505203341 0 346 0.0 1.6 0.00 0.00 0.00 84 1001.1
20260505202854 0 346 0.0 3.2 0.00 0.00 0.00 84 1001.1
20260505202325 0 346 0.0 4.8 0.00 0.00 0.00 83 1001.2
20260505201819 0 346 3.2 6.4 0.00 0.00 0.00 83 1001.2
20260505201333 0 347 3.2 6.4 0.00 0.00 0.00 83 1001.2
20260505200835 0 357 0.0 3.2 0.00 0.00 0.00 83 1001.3
20260505200349 0 358 0.0 8.0 0.00 0.00 0.00 82 1001.2